Tracking 29892 objects as of 21-Nov-2024
HD Live streaming from Space Station
objects crossing your sky now

STARLINK-3667

Track STARLINK-3667 now!
10-day predictions
STARLINK-3667 is classified as:


NORAD ID: 51999
Int'l Code: 2022-025AV
Perigee: 545.7 km
Apogee: 548.0 km
Inclination: 53.2 °
Period: 95.4 minutes
Semi major axis: 6917 km
RCS: Unknown
Launch date: March 9, 2022
Source: United States (US)
Launch site: AIR FORCE EASTERN TEST RANGE (AFETR)
Your satellite tracking list
Your tracking list is empty




NASA's NSSDC Master Catalog

Two Line Element Set (TLE):
1 51999U 22025AV  24325.51121168  .00000731  00000-0  63994-4 0  9991
2 51999  53.2174 347.7783 0001669  95.9788 264.1395 15.08843859150843
Source of the keplerian elements: AFSPC